This demonstration page uses our WeatherBlox Daily Observations layout. Learn more.

Left ArrowRight Arrow

36.19886, -115.1175

Hourly Observations for May 11, 2020

Temp ( °F °C ) Dew Point ( °F °C ) Humidity (%) Winds ( mph kmh ) Pressure ( in mb ) Visibility ( mi km ) Precip ( " mm )
12:53 am 00:53 Clear 85 29.4 24 -4.4 11 11 WSW 13 20 29.77 1008 10 16 N/A
1:53 am 01:53 Clear 83 28.3 27 -2.8 13 13 S 6 9 29.77 1008 10 16 N/A
2:53 am 02:53 Clear 81 27.2 32 undefined 17 17 SSE 7 11 29.77 1008 10 16 N/A
3:53 am 03:53 Clear 80 26.7 23 -5 12 12 SSE 10 17 29.77 1008 10 16 N/A
4:53 am 04:53 Clear 78 25.6 14 -10 9 9 SE 7 11 29.78 1008 10 16 N/A
5:53 am 05:53 Sunny 75 23.9 15 -9.4 10 10 SE 9 15 29.80 1009 10 16 N/A
6:53 am 06:53 Sunny 78 25.6 16 -8.9 9 9 SSE 9 15 29.80 1009 10 16 N/A
7:53 am 07:53 Sunny 80 26.7 20 -6.7 10 10 ESE 15 24 29.81 1010 10 16 N/A
8:53 am 08:53 Sunny 84 28.9 15 -9.4 7 7 SSE 16 26 29.80 1009 10 16 N/A
9:53 am 09:53 Sunny 87 30.6 10 -12.2 5 5 SE 16 26 29.79 1009 10 16 N/A
10:53 am 10:53 Sunny 89 31.7 10 -12.2 5 5 S 14 22 29.78 1008 10 16 N/A
11:53 am 11:53 Sunny 90 32.2 9 -12.8 5 5 SSW 21 33 29.77 1008 10 16 N/A
12:53 pm 12:53 Sunny 91 32.8 7 -13.9 4 4 SSW 28 44 29.74 1007 10 16 N/A
1:53 pm 13:53 Sunny 93 33.9 9 -12.8 4 4 SSW 28 44 29.72 1007 10 16 N/A
2:53 pm 14:53 Sunny 93 33.9 12 -11.1 5 5 WSW 18 30 29.72 1006 10 16 N/A
3:53 pm 15:53 Sunny 93 33.9 8 -13.3 4 4 WSW 23 37 29.70 1006 10 16 N/A
4:53 pm 16:53 Sunny 92 33.3 15 -9.4 6 6 SSW 21 33 29.68 1005 10 16 N/A
5:53 pm 17:53 Sunny 91 32.8 13 -10.6 5 5 SW 21 33 29.67 1005 10 16 N/A
6:53 pm 18:53 Sunny 89 31.7 14 -10 6 6 SSW 20 31 29.67 1005 10 16 N/A
7:53 pm 19:53 Clear 85 29.4 19 -7.2 9 9 SSW 18 30 29.67 1005 10 16 N/A
8:53 pm 20:53 Clear 83 28.3 24 -4.4 11 11 SSW 20 31 29.69 1005 10 16 N/A
9:53 pm 21:53 Clear 81 27.2 26 -3.3 13 13 SSW 20 31 29.68 1005 10 16 N/A
10:53 pm 22:53 Clear 79 26.1 29 -1.7 16 16 S 12 19 29.69 1005 10 16 N/A
11:53 pm 23:53 Clear 79 26.1 26 -3.3 14 14 SW 17 28 29.69 1005 10 16 N/A

Powered by AerisWeather